Montana Department of Transportation

Main Content

Accidents and Incidents Report

Hourly Weather Roundup

ASUS45 KGTF 191810
RWRMT 
MONTANA HOURLY WEATHER ROUNDUP
NATIONAL WEATHER SERVICE GREAT FALLS MT
1200 PM MDT SUN APR 19 2015

NOTE: "FAIR" INDICATES FEW OR NO CLOUDS BELOW 12000 FEET WITH NO
SIGNIFICANT WEATHER AND/OR OBSTRUCTIONS TO VISIBILITY.

MTZ001.007-043-191900-
WEST OF THE DIVIDE
  
CITY           SKY/WX    TMP DP  RH WIND       PRES   REMARKS
KALISPELL      CLEAR     53  27  36 S3        30.17F                  
MISSOULA       SUNNY     54  27  35 VRB3      30.16F                  
BUTTE          SUNNY     47  22  37 NE3       30.15F                  
DEER LODGE       N/A     46  25  42 CALM      30.19F                  
EUREKA           N/A     54  25  32 N7        30.19F                  
HAMILTON         N/A     55  27  33 SE1       30.14F                  
LIBBY            N/A     55  27  33 N3        30.16F                  
--------------------------------

MTZ008-052.055-191900-
SOUTHWEST MONTANA
  
CITY           SKY/WX    TMP DP  RH WIND       PRES   REMARKS
BOZEMAN        CLOUDY    46  24  42 VRB3      30.18F                  
DILLON         SUNNY     46  25  43 VRB5      30.15F                  
--------------------------------

MTZ009-010-012-014-046-048-049-054-191900-
EAST SLOPES AND CENTRAL MONTANA
  
CITY           SKY/WX    TMP DP  RH WIND       PRES   REMARKS
CUT BANK       CLOUDY    47  23  38 VRB7      30.21F                  
GREAT FALLS    CLOUDY    48  24  39 VRB3      30.21F                  
MALMSTROM AFB  PTSUNNY   48  20  33 NE3       30.22F                  
HELENA         CLOUDY    50  26  39 VRB5      30.18F                  
--------------------------------

MTZ011-013-016-021-045-047-050-051-191900-
NORTH CENTRAL MONTANA
  
CITY           SKY/WX    TMP DP  RH WIND       PRES   REMARKS
HAVRE          MOSUNNY   50  22  33 N9G18     30.23F                  
LEWISTOWN      MOSUNNY   45  19  35 NW12G18   30.21F                  
CHINOOK          N/A     50  19  29 NW17      30.21                   
FORT BENTON      N/A     50  19  29 CALM      30.25F                  
--------------------------------

MTZ017.020-022.042-056.058-061-062-191900-
EASTERN PLAINS
  
CITY           SKY/WX    TMP DP  RH WIND       PRES   REMARKS
BAKER          CLOUDY    39  28  64 NW22G31   30.08F WCI  29          
BILLINGS       MOSUNNY   50  16  25 N13G20    30.20F                  
GLASGOW        SUNNY     50  22  33 NW26G32   30.15F                  
JORDAN           N/A     49  27  42 N16G25    30.17F                  
LIVINGSTON     MOSUNNY   49  19  30 CALM      30.17F                  
MILES CITY     SUNNY     50  24  36 NW26G33   30.13F                  
SIDNEY         CLOUDY    45  27  49 NW22G35   30.07S                  
WOLF POINT     MOSUNNY   51  28  41 N23G33    30.12F                  
BIG TIMBER       N/A     46  14  27 NW5       30.18F                  
FORSYTH          N/A     48  19  32 NW15G33   30.16F                  
PLENTYWOOD       N/A     43  28  56 NW23G32   30.04S                  
POPLAR           N/A     46  27  46 NW22G30   30.10S                  
--------------------------------

REGIONAL REPORTS...DAKOTAS
  
CITY           SKY/WX    TMP DP  RH WIND       PRES   REMARKS
WILLISTON      CLOUDY    45  30  55 N32G43    30.03S                  
MINOT          CLOUDY    44  39  82 NW24G32   29.88R                  
DICKINSON      CLOUDY    44  32  62 NW29G37   29.96S                  
BEACH          CLOUDY    41  28  60 NW24G32   30.06S                  
CROSBY         CLOUDY    41  32  70 N21G33    30.01R                  
WATFORD CITY   MOCLDY    41  34  75 NW21G31   29.99F                  
BISMARCK       PTSUNNY   49  34  56 NW25G39   29.89F                  
GRAND FORKS    LGT RAIN  46  43  89 NW18      29.69S                  
FARGO          CLOUDY    48  40  73 NW25G35   29.71S                  
BUFFALO SD       N/A     47  26  44 NW41G53   29.94S                  
RAPID CITY     MOSUNNY   50  24  36 NW38G49   30.01F                  
--------------------------------

REGIONAL REPORTS...WYOMING/IDAHO/WASHINGTON
  
CITY           SKY/WX    TMP DP  RH WIND       PRES   REMARKS
GILLETTE       MOSUNNY   46  18  32 NW26G39   30.11F                  
SHERIDAN       CLOUDY    44  21  40 NW21G32   30.18F                  
BUFFALO WY     SUNNY     45  17  32 N32G45    30.14F                  
CODY           MOSUNNY   45  16  31 NW12      30.18F                  
YELLOWSTONE LA   N/A     34  16  47 VRB5      30.17F                  
IDAHO FALLS    SUNNY     55  19  24 N9        30.14F                  
SALMON         MOSUNNY   54  27  35 E3        30.12F                  
BOISE          SUNNY     61  25  25 W6        30.14S                  
SPOKANE        MOSUNNY   60  24  25 NE9       30.14F                  
--------------------------------

REGIONAL REPORTS...ALBERTA
  
CITY           SKY/WX    TMP DP  RH WIND       PRES   REMARKS
EDMONTON       MOSUNNY   54  16  22 W13       30.19F                  
CALGARY        MOSUNNY   50  18  27 S12       30.20F                  
LETHBRIDGE     MOSUNNY   48  21  34 W3        30.22F                  
MEDICINE HAT   PTSUNNY   52  23  32 N6        30.22F                  
--------------------------------

REGIONAL REPORTS...SASKATCHEWAN
  
CITY           SKY/WX    TMP DP  RH WIND       PRES   REMARKS
SWIFT CURRENT  PTSUNNY   45  23  42 N22G28    30.15F                  
REGINA         CLOUDY    39  30  70 NW18G29   30.08F WCI  30          
SASKATOON      MOSUNNY   48  14  25 N21G29    30.15F                  
--------------------------------